Home   Weather   Greenwich Borough   Past weeks

Flag for United Kingdom Past Weather in Greenwich Borough, England, United Kingdom — Yesterday and Last 2 Weeks

55 °F

Scattered clouds.

Feels Like: 53 °F
Forecast: 49 / 60 °F
Wind: 10 mph from Northeast

Location: Biggin Hill Airport

Current Time: Oct 24, 2016 at 3:22:17 PM

Latest Report: Oct 24, 2016 at 2:50 PM

Visibility: 6 mi

Pressure: 29.92 "Hg

Humidity: 77%

Dew Point: 48 °F

Location of Greenwich BoroughLocation

Past Weather in Greenwich Borough — Graph


Greenwich Borough Temperature Yesterday

Maximum temperature yesterday: 55 °F (at 1:20 PM)
Minimum temperature yesterday: 32 °F (at 7:20 PM)
Average temperature yesterday: 49 °F

High & Low Weather Summary for the Past Weeks

High63 °F (Oct 11, 12:50 PM)100% (Oct 10, 1:50 PM)30.36 "Hg (Oct 10, 1:50 PM)
Low32 °F (Oct 10, 1:50 PM)48% (Oct 10, 5:50 PM)29.65 "Hg (Oct 14, 3:50 PM)
Average53 °F79%30.02 "Hg
* Reported Oct 9 1:20 PM — Oct 24 1:50 PM, Greenwich Borough, Weather by CustomWeather, © 2016

Note: Actual official high and low records may vary slightly from our data, if they occured in-between our weather recording intervals... More about our weather records


Greenwich Borough Weather History for the Previous 24 Hours

Scroll right to see more
Time TempWeatherWind HumidityBarometerVisibility
1:50 PM
Mon, Oct 24
54 °FScattered clouds.9 mph77%29.92 "Hg6 mi
1:20 PM54 °FBroken clouds.7 mph82%29.89 "Hg5 mi
12:50 PM54 °FBroken clouds.7 mph82%29.89 "Hg5 mi
12:20 PM54 °FBroken clouds.8 mph77%29.89 "Hg4 mi
11:50 AM54 °FBroken clouds.8 mph82%29.89 "Hg4 mi
11:20 AM54 °FBroken clouds.12 mph77%29.89 "Hg4 mi
10:50 AM52 °FPartly sunny.9 mph82%29.89 "Hg3 mi
10:20 AM52 °FPartly sunny.7 mph82%29.86 "Hg3 mi
9:50 AM52 °FPartly sunny.7 mph82%29.89 "Hg3 mi
9:20 AM50 °FPartly sunny.7 mph88%29.89 "Hg2 mi
8:50 AM50 °FFog.6 mph88%29.89 "Hg2 mi
8:20 AM50 °FFog.6 mph88%29.86 "Hg2 mi
7:50 AM50 °FFog.6 mph82%29.86 "Hg1 mi
7:20 AM50 °FFog.8 mph82%29.83 "Hg1 mi
7:20 PM
Sun, Oct 23
32 °FPassing clouds.8 mph100%29.83 "HgN/A
6:50 PM50 °FPassing clouds.9 mph76%29.83 "HgN/A
6:20 PM50 °FPassing clouds.9 mph76%29.83 "HgN/A
5:50 PM50 °FClear.13 mph76%29.83 "Hg10 mi
5:20 PM52 °FPassing clouds.12 mph67%29.80 "HgN/A
4:50 PM52 °FPassing clouds.10 mph67%29.83 "HgN/A
4:20 PM54 °FPassing clouds.13 mph63%29.83 "HgN/A
3:50 PM54 °FPassing clouds.12 mph63%29.83 "HgN/A
3:20 PM54 °FPassing clouds.15 mph58%29.83 "HgN/A
Weather by CustomWeather, © 2016

See weather overviewHow to use our weather pages